| time (UTC) | temp F | wind direction | speed knots | gust knots | rain 1hr in | rain 24hr in | rain mn in | humidity % | barometer mb |
| 20260503230526 | 61 | 235 | 7.0 | 13.9 | 0.00 | 0.00 | 0.00 | 29 | 1010.2 |
| 20260503230038 | 62 | 225 | 5.2 | 10.4 | 0.00 | 0.00 | 0.00 | 29 | 1010.1 |
| 20260503225522 | 62 | 360 | 4.3 | 10.4 | 0.00 | 0.00 | 0.00 | 29 | 1010.1 |
| 20260503225022 | 61 | 360 | 4.3 | 11.3 | 0.00 | 0.00 | 0.00 | 29 | 1010.0 |
| 20260503224537 | 61 | 360 | 6.1 | 13.9 | 0.00 | 0.00 | 0.00 | 29 | 1010.0 |
| 20260503224022 | 61 | 360 | 7.8 | 13.9 | 0.00 | 0.00 | 0.00 | 29 | 1010.1 |
| 20260503223522 | 61 | 360 | 6.1 | 13.9 | 0.00 | 0.00 | 0.00 | 29 | 1010.1 |
| 20260503223037 | 61 | 360 | 5.2 | 15.6 | 0.00 | 0.00 | 0.00 | 29 | 1010.0 |
| 20260503222522 | 61 | 219 | 5.2 | 15.6 | 0.00 | 0.00 | 0.00 | 29 | 1010.1 |
| 20260503222022 | 62 | 252 | 4.3 | 11.3 | 0.00 | 0.00 | 0.00 | 29 | 1010.0 |
| 20260503221543 | 62 | 210 | 4.3 | 13.9 | 0.00 | 0.00 | 0.00 | 29 | 1010.0 |
| 20260503221022 | 62 | 224 | 6.1 | 13.9 | 0.00 | 0.00 | 0.00 | 28 | 1009.9 |
| 20260503220522 | 62 | 222 | 4.3 | 9.6 | 0.00 | 0.00 | 0.00 | 28 | 1010.0 |
| 20260503220041 | 62 | 255 | 4.3 | 14.8 | 0.00 | 0.00 | 0.00 | 29 | 1010.0 |
| 20260503215521 | 61 | 210 | 4.3 | 14.8 | 0.00 | 0.00 | 0.00 | 28 | 1010.0 |
| 20260503215021 | 62 | 250 | 7.8 | 14.8 | 0.00 | 0.00 | 0.00 | 28 | 1010.1 |
| 20260503214541 | 62 | 267 | 6.1 | 12.2 | 0.00 | 0.00 | 0.00 | 28 | 1010.1 |
| 20260503214022 | 61 | 222 | 5.2 | 13.0 | 0.00 | 0.00 | 0.00 | 29 | 1009.9 |
| 20260503213522 | 61 | 238 | 5.2 | 15.6 | 0.00 | 0.00 | 0.00 | 28 | 1010.1 |
| 20260503213037 | 61 | 296 | 6.1 | 15.6 | 0.00 | 0.00 | 0.00 | 29 | 1010.1 |
| 20260503212523 | 61 | 242 | 7.8 | 15.6 | 0.00 | 0.00 | 0.00 | 28 | 1010.0 |
| 20260503212023 | 61 | 230 | 8.7 | 14.8 | 0.00 | 0.00 | 0.00 | 29 | 1010.1 |
| 20260503211538 | 61 | 249 | 8.7 | 17.4 | 0.00 | 0.00 | 0.00 | 28 | 1010.0 |
| 20260503211022 | 61 | 293 | 7.0 | 17.4 | 0.00 | 0.00 | 0.00 | 28 | 1010.1 |
| 20260503210522 | 61 | 283 | 7.8 | 16.5 | 0.00 | 0.00 | 0.00 | 28 | 1010.1 |
| 20260503210043 | 61 | 259 | 6.1 | 13.0 | 0.00 | 0.00 | 0.00 | 29 | 1010.1 |
| 20260503205524 | 61 | 281 | 7.0 | 13.9 | 0.00 | 0.00 | 0.00 | 29 | 1010.0 |
| 20260503205022 | 61 | 248 | 7.0 | 16.5 | 0.00 | 0.00 | 0.00 | 29 | 1010.1 |
| 20260503204543 | 61 | 231 | 8.7 | 16.5 | 0.00 | 0.00 | 0.00 | 29 | 1010.1 |
| 20260503204022 | 61 | 261 | 4.3 | 15.6 | 0.00 | 0.00 | 0.00 | 29 | 1010.1 |
| 20260503203522 | 60 | 360 | 7.0 | 15.6 | 0.00 | 0.00 | 0.00 | 29 | 1010.1 |
| 20260503203049 | 60 | 360 | 7.8 | 15.6 | 0.00 | 0.00 | 0.00 | 30 | 1010.1 |
| 20260503202522 | 60 | 360 | 7.8 | 17.4 | 0.00 | 0.00 | 0.00 | 29 | 1010.1 |
| 20260503202021 | 60 | 360 | 8.7 | 17.4 | 0.00 | 0.00 | 0.00 | 29 | 1010.2 |
| 20260503201543 | 60 | 274 | 7.0 | 15.6 | 0.00 | 0.00 | 0.00 | 29 | 1010.1 |
| 20260503201059 | 60 | 249 | 7.8 | 16.5 | 0.00 | 0.00 | 0.00 | 28 | 1010.3 |
| 20260503200521 | 60 | 292 | 4.3 | 16.5 | 0.00 | 0.00 | 0.00 | 29 | 1010.3 |
| 20260503200038 | 60 | 274 | 7.8 | 16.5 | 0.00 | 0.00 | 0.00 | 28 | 1010.3 |
| 20260503195525 | 60 | 321 | 4.3 | 13.0 | 0.00 | 0.00 | 0.00 | 30 | 1010.2 |
| 20260503195021 | 60 | 228 | 6.1 | 13.9 | 0.00 | 0.00 | 0.00 | 30 | 1010.3 |
| 20260503194538 | 59 | 360 | 5.2 | 14.8 | 0.00 | 0.00 | 0.00 | 30 | 1010.4 |
| 20260503194022 | 60 | 360 | 4.3 | 14.8 | 0.00 | 0.00 | 0.00 | 30 | 1010.5 |
| 20260503193522 | 59 | 360 | 5.2 | 11.3 | 0.00 | 0.00 | 0.00 | 31 | 1010.5 |
| 20260503193046 | 59 | 271 | 3.5 | 13.9 | 0.00 | 0.00 | 0.00 | 30 | 1010.5 |
| 20260503192523 | 59 | 360 | 5.2 | 13.9 | 0.00 | 0.00 | 0.00 | 30 | 1010.5 |
| 20260503192022 | 59 | 218 | 8.7 | 13.9 | 0.00 | 0.00 | 0.00 | 29 | 1010.6 |
| 20260503191542 | 60 | 264 | 7.8 | 16.5 | 0.00 | 0.00 | 0.00 | 29 | 1010.8 |
| 20260503191022 | 60 | 280 | 7.8 | 16.5 | 0.00 | 0.00 | 0.00 | 30 | 1010.6 |
| 20260503190522 | 60 | 240 | 8.7 | 20.9 | 0.00 | 0.00 | 0.00 | 30 | 1010.6 |
| 20260503190045 | 59 | 229 | 7.8 | 20.9 | 0.00 | 0.00 | 0.00 | 30 | 1010.6 |
| 20260503185522 | 60 | 219 | 8.7 | 17.4 | 0.00 | 0.00 | 0.00 | 30 | 1010.6 |
| 20260503185022 | 59 | 274 | 7.8 | 18.2 | 0.00 | 0.00 | 0.00 | 30 | 1010.7 |
| 20260503184545 | 59 | 360 | 7.8 | 18.2 | 0.00 | 0.00 | 0.00 | 30 | 1010.7 |
| 20260503184024 | 60 | 221 | 4.3 | 13.0 | 0.00 | 0.00 | 0.00 | 31 | 1010.9 |
| 20260503183523 | 59 | 360 | 7.0 | 12.2 | 0.00 | 0.00 | 0.00 | 32 | 1011.0 |
| 20260503183040 | 59 | 360 | 6.1 | 12.2 | 0.00 | 0.00 | 0.00 | 31 | 1011.1 |
| 20260503182522 | 59 | 360 | 7.0 | 13.9 | 0.00 | 0.00 | 0.00 | 32 | 1011.1 |
| 20260503182024 | 58 | 360 | 7.0 | 13.9 | 0.00 | 0.00 | 0.00 | 32 | 1011.2 |
| 20260503181540 | 58 | 360 | 7.8 | 14.8 | 0.00 | 0.00 | 0.00 | 32 | 1011.1 |
| 20260503181022 | 58 | 360 | 7.8 | 18.2 | 0.00 | 0.00 | 0.00 | 32 | 1011.1 |
| 20260503180521 | 58 | 360 | 7.8 | 18.2 | 0.00 | 0.00 | 0.00 | 32 | 1011.0 |
| 20260503180045 | 58 | 360 | 5.2 | 13.0 | 0.00 | 0.00 | 0.00 | 33 | 1011.2 |
| 20260503175523 | 58 | 360 | 5.2 | 16.5 | 0.00 | 0.00 | 0.00 | 34 | 1011.3 |
| 20260503175022 | 57 | 360 | 4.3 | 16.5 | 0.00 | 0.00 | 0.00 | 34 | 1011.2 |
| 20260503174536 | 56 | 360 | 8.7 | 16.5 | 0.00 | 0.00 | 0.00 | 34 | 1011.3 |
| 20260503174022 | 56 | 360 | 5.2 | 14.8 | 0.00 | 0.00 | 0.00 | 36 | 1011.4 |
| 20260503173522 | 56 | 360 | 4.3 | 14.8 | 0.00 | 0.00 | 0.00 | 37 | 1011.4 |
| 20260503173049 | 55 | 360 | 7.8 | 13.9 | 0.00 | 0.00 | 0.00 | 37 | 1011.6 |
| 20260503172521 | 56 | 360 | 6.1 | 13.0 | 0.00 | 0.00 | 0.00 | 36 | 1011.6 |
| 20260503172021 | 55 | 360 | 7.8 | 13.0 | 0.00 | 0.00 | 0.00 | 37 | 1011.7 |
| 20260503171542 | 55 | 360 | 3.5 | 15.6 | 0.00 | 0.00 | 0.00 | 38 | 1011.6 |
| 20260503171022 | 55 | 360 | 6.1 | 15.6 | 0.00 | 0.00 | 0.00 | 37 | 1011.8 |
| 20260503170522 | 55 | 360 | 4.3 | 15.6 | 0.00 | 0.00 | 0.00 | 37 | 1011.9 |
| 20260503150522 | 51 | 360 | 8.7 | 13.9 | 0.00 | 0.00 | 0.00 | 44 | 1012.6 |
| 20260503131019 | 49 | 360 | 4.3 | 11.3 | 0.00 | 0.00 | 0.00 | 51 | 1012.4 |
| 20260503130523 | 49 | 360 | 3.5 | 11.3 | 0.00 | 0.00 | 0.00 | 52 | 1012.4 |
| 20260503110522 | 45 | 360 | 3.5 | 7.0 | 0.00 | 0.00 | 0.00 | 58 | 1011.9 |
| 20260503081543 | 47 | 360 | 1.7 | 4.3 | 0.00 | 0.00 | 0.00 | 52 | 1010.2 |
| 20260503081022 | 47 | 360 | 0.0 | 4.3 | 0.00 | 0.00 | 0.00 | 52 | 1010.2 |
| 20260503080522 | 47 | 360 | 1.7 | 4.3 | 0.00 | 0.00 | 0.00 | 52 | 1010.2 |
| 20260503072521 | 48 | 360 | 1.7 | 5.2 | 0.00 | 0.00 | 0.00 | 51 | 1010.1 |
| 20260503072021 | 48 | 360 | 0.9 | 4.3 | 0.00 | 0.00 | 0.00 | 51 | 1010.2 |
| 20260503071539 | 48 | 360 | 1.7 | 4.3 | 0.00 | 0.00 | 0.00 | 51 | 1010.1 |
| 20260503071021 | 49 | 360 | 1.7 | 3.5 | 0.00 | 0.00 | 0.00 | 51 | 1010.1 |
| 20260503070521 | 49 | 360 | 0.9 | 3.5 | 0.00 | 0.00 | 0.00 | 51 | 1010.0 |
| 20260503060107 | 50 | 360 | 0.0 | 2.6 | 0.00 | 0.00 | 0.00 | 48 | 1010.2 |
| 20260503055021 | 50 | 360 | 0.0 | 3.5 | 0.00 | 0.00 | 0.00 | 48 | 1010.4 |
| 20260503054539 | 50 | 0 | 0.9 | 5.2 | 0.00 | 0.00 | 0.00 | 48 | 1010.4 |
| 20260503054021 | 50 | 360 | 0.9 | 5.2 | 0.00 | 0.00 | 0.00 | 48 | 1010.4 |
| 20260503053521 | 50 | 360 | 1.7 | 5.2 | 0.00 | 0.00 | 0.00 | 48 | 1010.3 |
| 20260503053042 | 50 | 360 | 0.9 | 3.5 | 0.00 | 0.00 | 0.00 | 48 | 1010.3 |
| 20260503052521 | 50 | 0 | 0.9 | 3.5 | 0.00 | 0.00 | 0.00 | 48 | 1010.3 |
| 20260503052022 | 50 | 360 | 0.0 | 3.5 | 0.00 | 0.00 | 0.00 | 48 | 1010.4 |
| 20260503051541 | 50 | 360 | 0.9 | 4.3 | 0.00 | 0.00 | 0.00 | 48 | 1010.3 |
| 20260503051021 | 50 | 360 | 0.9 | 4.3 | 0.00 | 0.00 | 0.00 | 48 | 1010.6 |
| 20260503050521 | 50 | 0 | 0.9 | 4.3 | 0.00 | 0.00 | 0.00 | 48 | 1010.6 |
| 20260503050041 | 50 | 360 | 0.9 | 4.3 | 0.00 | 0.00 | 0.00 | 47 | 1010.7 |
| 20260503045522 | 50 | 360 | 0.9 | 4.3 | 0.00 | 0.00 | 0.00 | 47 | 1010.6 |
| 20260503045024 | 50 | 0 | 0.9 | 7.8 | 0.00 | 0.00 | 0.00 | 47 | 1010.5 |
| 20260503044541 | 50 | 360 | 1.7 | 7.8 | 0.00 | 0.00 | 0.00 | 47 | 1010.6 |
| 20260503044021 | 50 | 360 | 3.5 | 7.8 | 0.00 | 0.00 | 0.00 | 47 | 1010.6 |
| 20260503043523 | 50 | 360 | 1.7 | 7.8 | 0.00 | 0.00 | 0.00 | 47 | 1010.6 |
| 20260503043047 | 50 | 360 | 2.6 | 7.8 | 0.00 | 0.00 | 0.00 | 47 | 1010.7 |
| 20260503042526 | 50 | 360 | 2.6 | 7.8 | 0.00 | 0.00 | 0.00 | 48 | 1010.7 |
| 20260503042038 | 50 | 360 | 1.7 | 7.0 | 0.00 | 0.00 | 0.00 | 48 | 1010.7 |
| 20260503041538 | 50 | 360 | 1.7 | 5.2 | 0.00 | 0.00 | 0.00 | 48 | 1010.7 |
| 20260503041021 | 50 | 0 | 1.7 | 5.2 | 0.00 | 0.00 | 0.00 | 48 | 1010.8 |
| 20260503040521 | 50 | 360 | 1.7 | 3.5 | 0.00 | 0.00 | 0.00 | 48 | 1010.7 |
| 20260503040053 | 50 | 360 | 1.7 | 4.3 | 0.00 | 0.00 | 0.00 | 48 | 1010.9 |
| 20260503035521 | 50 | 360 | 1.7 | 4.3 | 0.00 | 0.00 | 0.00 | 47 | 1010.8 |
| 20260503035021 | 51 | 360 | 1.7 | 4.3 | 0.00 | 0.00 | 0.00 | 47 | 1010.8 |
| 20260503034544 | 51 | 360 | 1.7 | 3.5 | 0.00 | 0.00 | 0.00 | 47 | 1010.7 |
| 20260503034021 | 51 | 360 | 1.7 | 3.5 | 0.00 | 0.00 | 0.00 | 47 | 1010.8 |
| 20260503033520 | 51 | 360 | 0.9 | 3.5 | 0.00 | 0.00 | 0.00 | 47 | 1010.7 |
| 20260503033037 | 51 | 360 | 1.7 | 3.5 | 0.00 | 0.00 | 0.00 | 47 | 1010.7 |
| 20260503032521 | 51 | 360 | 0.9 | 3.5 | 0.00 | 0.00 | 0.00 | 46 | 1010.6 |
| 20260503032021 | 52 | 360 | 0.9 | 3.5 | 0.00 | 0.00 | 0.00 | 46 | 1010.6 |
| 20260503031537 | 52 | 360 | 0.9 | 3.5 | 0.00 | 0.00 | 0.00 | 46 | 1010.7 |
| 20260503031022 | 52 | 0 | 0.0 | 0.0 | 0.00 | 0.00 | 0.00 | 46 | 1010.8 |
| 20260503030521 | 52 | 0 | 0.0 | 0.0 | 0.00 | 0.00 | 0.00 | 45 | 1010.8 |
| 20260503030036 | 52 | 0 | 0.0 | 1.7 | 0.00 | 0.00 | 0.00 | 45 | 1010.9 |
| 20260503025522 | 53 | 0 | 0.0 | 2.6 | 0.00 | 0.00 | 0.00 | 45 | 1010.8 |
| 20260503025023 | 53 | 0 | 0.9 | 3.5 | 0.00 | 0.00 | 0.00 | 44 | 1010.8 |
| 20260503024543 | 53 | 360 | 0.0 | 3.5 | 0.00 | 0.00 | 0.00 | 44 | 1010.8 |
| 20260503024022 | 53 | 360 | 0.9 | 3.5 | 0.00 | 0.00 | 0.00 | 44 | 1010.8 |
| 20260503023522 | 53 | 360 | 0.9 | 4.3 | 0.00 | 0.00 | 0.00 | 43 | 1010.9 |
| 20260503023043 | 53 | 360 | 1.7 | 4.3 | 0.00 | 0.00 | 0.00 | 43 | 1010.8 |
| 20260503022521 | 54 | 360 | 1.7 | 3.5 | 0.00 | 0.00 | 0.00 | 43 | 1010.8 |
| 20260503022022 | 54 | 360 | 1.7 | 4.3 | 0.00 | 0.00 | 0.00 | 43 | 1010.7 |
| 20260503021550 | 54 | 360 | 1.7 | 4.3 | 0.00 | 0.00 | 0.00 | 43 | 1010.7 |
| 20260503021022 | 54 | 360 | 0.9 | 3.5 | 0.00 | 0.00 | 0.00 | 43 | 1010.7 |
| 20260503020522 | 54 | 360 | 1.7 | 4.3 | 0.00 | 0.00 | 0.00 | 43 | 1010.6 |
| 20260503020048 | 54 | 360 | 0.9 | 4.3 | 0.00 | 0.00 | 0.00 | 43 | 1010.7 |
| 20260503015521 | 55 | 360 | 1.7 | 4.3 | 0.00 | 0.00 | 0.00 | 42 | 1010.7 |
| 20260503015021 | 55 | 360 | 1.7 | 4.3 | 0.00 | 0.00 | 0.00 | 42 | 1010.7 |
| 20260503014537 | 55 | 360 | 1.7 | 4.3 | 0.00 | 0.00 | 0.00 | 42 | 1010.7 |
| 20260503014021 | 55 | 360 | 0.9 | 2.6 | 0.00 | 0.00 | 0.00 | 41 | 1010.7 |
| 20260503013521 | 55 | 360 | 0.9 | 3.5 | 0.00 | 0.00 | 0.00 | 41 | 1010.8 |
| 20260503013036 | 55 | 0 | 0.9 | 3.5 | 0.00 | 0.00 | 0.00 | 41 | 1010.8 |
| 20260503012521 | 55 | 360 | 0.9 | 3.5 | 0.00 | 0.00 | 0.00 | 41 | 1010.7 |
| 20260503012021 | 56 | 360 | 1.7 | 3.5 | 0.00 | 0.00 | 0.00 | 41 | 1010.7 |
| 20260503011536 | 56 | 360 | 0.9 | 3.5 | 0.00 | 0.00 | 0.00 | 41 | 1010.8 |
| 20260503011021 | 56 | 360 | 0.9 | 3.5 | 0.00 | 0.00 | 0.00 | 41 | 1010.6 |
| 20260503010521 | 56 | 360 | 0.9 | 3.5 | 0.00 | 0.00 | 0.00 | 41 | 1010.6 |
| 20260503010042 | 56 | 360 | 0.9 | 2.6 | 0.00 | 0.00 | 0.00 | 41 | 1010.4 |
| 20260503005523 | 56 | 360 | 0.9 | 2.6 | 0.00 | 0.00 | 0.00 | 40 | 1010.4 |
| 20260503005021 | 56 | 360 | 0.9 | 2.6 | 0.00 | 0.00 | 0.00 | 40 | 1010.4 |
| 20260503004550 | 56 | 0 | 0.0 | 2.6 | 0.00 | 0.00 | 0.00 | 40 | 1010.2 |
| 20260503004021 | 56 | 360 | 0.9 | 2.6 | 0.00 | 0.00 | 0.00 | 40 | 1010.1 |
| 20260503003520 | 57 | 360 | 1.7 | 2.6 | 0.00 | 0.00 | 0.00 | 39 | 1010.2 |
| 20260503003056 | 57 | 360 | 0.9 | 3.5 | 0.00 | 0.00 | 0.00 | 39 | 1010.1 |
| 20260503002521 | 57 | 360 | 0.9 | 3.5 | 0.00 | 0.00 | 0.00 | 39 | 1010.1 |
| 20260503002021 | 57 | 360 | 1.7 | 3.5 | 0.00 | 0.00 | 0.00 | 38 | 1010.0 |
| 20260503001542 | 57 | 360 | 0.9 | 4.3 | 0.00 | 0.00 | 0.00 | 38 | 1010.0 |
| 20260503001021 | 57 | 360 | 0.9 | 4.3 | 0.00 | 0.00 | 0.00 | 38 | 1010.0 |
| 20260503000521 | 57 | 360 | 1.7 | 5.2 | 0.00 | 0.00 | 0.00 | 38 | 1010.0 |
| 20260503000038 | 58 | 360 | 1.7 | 5.2 | 0.00 | 0.00 | 0.00 | 38 | 1009.9 |
| 20260502235521 | 58 | 360 | 1.7 | 4.3 | 0.00 | 0.00 | 0.00 | 38 | 1009.9 |
| 20260502235021 | 58 | 360 | 0.9 | 3.5 | 0.00 | 0.00 | 0.00 | 39 | 1009.9 |
| 20260502234544 | 58 | 360 | 0.9 | 4.3 | 0.00 | 0.00 | 0.00 | 38 | 1009.8 |
| 20260502234021 | 58 | 360 | 1.7 | 5.2 | 0.00 | 0.00 | 0.00 | 37 | 1009.8 |
| 20260502233522 | 58 | 360 | 1.7 | 7.0 | 0.00 | 0.00 | 0.00 | 37 | 1009.9 |
| 20260502233041 | 58 | 360 | 2.6 | 7.0 | 0.00 | 0.00 | 0.00 | 37 | 1009.9 |
| 20260502232520 | 58 | 360 | 1.7 | 5.2 | 0.00 | 0.00 | 0.00 | 37 | 1009.9 |
| 20260502232021 | 59 | 360 | 1.7 | 5.2 | 0.00 | 0.00 | 0.00 | 37 | 1010.0 |
| 20260502231541 | 59 | 360 | 0.9 | 5.2 | 0.00 | 0.00 | 0.00 | 37 | 1009.9 |
| 20260502231021 | 59 | 360 | 0.9 | 7.8 | 0.00 | 0.00 | 0.00 | 36 | 1009.8 |